[[{"header":{"parameterUnit":"m.s-1","parameterCategory":1,"la1":30.2991,"la2":30.254,"lo1":-89.0895,"lo2":-89.0444,"dy":0.0017,"dx":0.0017,"nx":28,"ny":28,"refTime":"2023-08-30T21:00:00:Z","depth":0,"parameterNumber":2,"parameterNumberName":"U-component_of_WINDS"},"data":[0,0,0,0,0,0,0,0,0,0,0,0,0,0,0,0,0,0,0,0,0,0,0,0,0,0,0,0,0,0,0,0,0,0,0,0,0,0,0,0,0,0,0,0,0,0,0,0,0,0,0,0,0,0,0,0,0,0,1.2887,1.2888,0,1.2906,1.2906,1.2907,1.2904,1.2903,1.2903,1.2903,1.292,1.2921,1.2921,0,0,0,0,0,0,0,0,0,0,0,0,0,1.2848,1.2848,1.2887,1.2888,1.2888,1.2906,1.2906,1.2907,1.2904,1.2903,1.2903,1.2902,1.292,1.2921,1.2921,0,0,0,0,0,0,0,0,0,0,0,0,0,1.2865,1.2849,1.2887,1.2889,1.2889,1.2906,1.2906,1.2907,1.2904,1.2903,1.2903,1.2902,1.2919,1.292,1.2922,1.2938,0,0,1.2925,1.2926,0,0,0,0,0,0,0,0,1.2864,1.2867,1.2888,1.2889,1.2889,1.2902,1.2899,1.2917,1.2904,1.2898,1.2903,1.2902,1.2914,1.2916,1.292,1.2939,1.294,1.2925,1.2926,1.2926,1.2927,0,0,0,0,0,0,0,1.2863,1.2866,1.2895,1.2888,1.2889,1.2888,1.289,1.2902,1.2908,1.2898,1.2898,1.2901,1.2914,1.2919,1.2921,1.294,1.2925,1.2926,1.2927,1.2927,1.2973,1.2973,0,0,0,0,0,0,1.2862,1.2865,1.2894,1.2895,1.2875,1.2889,1.2891,1.2898,1.2908,1.2909,1.2901,1.29,1.2917,1.2919,1.2921,1.2941,1.2926,1.2927,1.2928,1.2972,1.2973,1.2973,0,0,0,0,0,0,1.2861,1.2864,1.2893,1.288,1.2884,1.289,1.2898,1.2899,1.2904,1.291,1.2911,1.2905,1.2917,1.292,1.2934,1.2941,1.2928,1.2929,1.2972,1.2972,1.2973,1.298,0,0,0,0,0,0,1.286,1.2864,1.2871,1.288,1.2884,1.2906,1.2899,1.29,1.2906,1.2905,1.2914,1.2915,1.2917,1.2932,1.2935,1.2943,1.293,1.2971,1.2972,1.2973,1.2979,1.2981,1.2983,0,0,0,0,0,1.2858,1.2872,1.2871,1.2875,1.2893,1.2907,1.2909,1.2911,1.2907,1.2913,1.2917,1.2915,1.294,1.2934,1.2937,1.2945,1.297,1.2972,1.2973,1.2979,1.2981,1.2983,0,0,0,0,0,0,1.2862,1.2873,1.2872,1.2889,1.2897,1.2906,1.2914,1.2914,1.2922,1.2921,1.2923,1.2926,1.294,1.2944,1.2937,1.2961,1.2955,1.2957,1.2958,1.296,1.2962,1.296,1.2931,0,0,0,0,0,1.2865,1.2875,1.2884,1.2898,1.2902,1.2908,1.2914,1.2915,1.2923,1.2926,1.2931,1.2939,1.2949,1.2955,1.2964,1.298,1.2982,1.2987,1.2989,1.2991,1.2992,1.3,1.3003,1.2977,1.2977,1.2977,0,0,1.287,1.2878,1.2884,1.2899,1.2905,1.2916,1.291,1.2922,1.2929,1.2928,1.2941,1.2946,1.2954,1.297,1.2977,1.2973,1.2999,1.2992,1.2993,1.2993,1.3002,1.3004,1.3006,1.2978,1.2978,1.2978,0,0,1.2886,1.2893,1.2905,1.2912,1.2922,1.2925,1.2928,1.2938,1.2941,1.2955,1.2954,1.2963,1.2979,1.2985,1.2991,1.3009,1.3007,1.3012,1.3021,1.3029,1.3031,1.3033,1.3039,1.3041,1.3014,1.3014,1.3014,0,1.2891,1.2907,1.2911,1.2923,1.2929,1.2929,1.2941,1.2947,1.296,1.2964,1.296,1.2981,1.2987,1.3004,1.3008,1.3013,1.3016,1.3011,1.3031,1.3032,1.3034,1.304,1.3042,1.3014,1.3014,1.3014,1.3014,0,1.2913,1.2925,1.2933,1.2946,1.2953,1.2965,1.297,1.2977,1.2978,1.2982,1.2997,1.3004,1.3014,1.3019,1.3019,1.3035,1.3033,1.303,1.3023,1.3037,1.3042,1.3045,1.3015,1.3015,1.3015,1.3015,0,0,1.293,1.2945,1.2948,1.2954,1.2965,1.2974,1.2986,1.2997,1.3003,1.3012,1.3021,1.3036,1.3033,1.3039,1.3041,1.3048,1.3062,1.3044,1.3045,1.3047,1.3079,1.3081,1.3083,1.3061,1.3062,1.3062,1.3078,0,1.2946,1.2967,1.2971,1.299,1.3,1.3001,1.3011,1.3019,1.3023,1.3032,1.3037,1.3047,1.3043,1.3047,1.3054,1.3059,1.3068,1.3058,1.3069,1.307,1.3066,1.3086,1.3088,1.3102,1.3081,1.3081,1.3081,0,1.2967,1.2977,1.2996,1.3007,1.3011,1.302,1.3031,1.304,1.3049,1.3051,1.3059,1.306,1.3071,1.3065,1.3081,1.3074,1.3079,1.3082,1.3083,1.3083,1.3075,1.3086,1.3107,1.3109,1.3085,1.3084,1.3084,0,1.2976,1.2994,1.3008,1.3013,1.3026,1.3032,1.3038,1.3047,1.3053,1.3062,1.3066,1.3077,1.3082,1.309,1.3094,1.3089,1.3109,1.3103,1.3111,1.3111,1.3114,1.3114,1.3136,1.3119,1.3119,1.3119,1.3119,0,1.2992,1.3004,1.3013,1.3021,1.3034,1.3039,1.3052,1.3057,1.3065,1.3074,1.3076,1.3084,1.3089,1.3098,1.3101,1.3113,1.3116,1.3118,1.3118,1.3117,1.3117,1.312,1.3118,1.312,1.312,1.312,1.312,0,1.3004,1.3011,1.3026,1.3037,1.304,1.3049,1.3059,1.3067,1.3071,1.3083,1.3086,1.3093,1.3104,1.3109,1.3122,1.3124,1.3138,1.3138,1.3135,1.3135,1.3142,1.3141,1.3166,1.3169,1.3151,1.3151,1.3152,0,1.3014,1.3023,1.3036,1.3042,1.3048,1.3059,1.3066,1.3071,1.3078,1.3089,1.3096,1.3107,1.3116,1.3133,1.3139,1.3149,1.3149,1.3157,1.315,1.3149,1.3148,1.3147,1.3148,1.3158,1.3158,1.3158,1.3158,0,1.303,1.3033,1.3043,1.3055,1.3063,1.3072,1.3081,1.3087,1.3093,1.3101,1.3112,1.3119,1.3133,1.3144,1.3155,1.316,1.316,1.316,1.3163,1.3161,1.3158,1.3159,1.3137,1.3159,1.3159,1.3159,1.3159,1.3159,1.304,1.3049,1.3059,1.307,1.3078,1.3086,1.3094,1.3101,1.311,1.3122,1.3125,1.3137,1.3146,1.316,1.3166,1.3175,1.3173,1.3176,1.3177,1.3178,1.3178,1.3158,1.3177,1.3177,1.3177,1.3177,1.3177,0,1.3056,1.3063,1.3073,1.3086,1.3095,1.3096,1.3106,1.3113,1.3124,1.3133,1.3142,1.3155,1.3165,1.3173,1.3183,1.3189,1.319,1.3192,1.3191,1.3192,1.3179,1.3176,1.3192,1.3192,1.3192,1.3192,1.3192,1.3192,1.3065,1.3079,1.3083,1.31,1.3107,1.3119,1.3125,1.3133,1.314,1.3155,1.3164,1.3169,1.3177,1.3188,1.3198,1.32,1.3203,1.3205,1.3207,1.3194,1.3193,1.3191,1.3188,1.3206,1.3206,1.3219,1.3219,1.3219]},{"header":{"parameterUnit":"m.s-1","parameterCategory":1,"la1":30.2991,"la2":30.254,"lo1":-89.0895,"lo2":-89.0444,"dy":0.0017,"dx":0.0017,"nx":28,"ny":28,"refTime":"2023-08-30T21:00:00:Z","depth":0,"parameterNumber":3,"parameterNumberName":"V-component_of_WINDS"},"data":[0,0,0,0,0,0,0,0,0,0,0,0,0,0,0,0,0,0,0,0,0,0,0,0,0,0,0,0,0,0,0,0,0,0,0,0,0,0,0,0,0,0,0,0,0,0,0,0,0,0,0,0,0,0,0,0,0,0,-0.6805,-0.6804,0,-0.678,-0.678,-0.678,-0.6784,-0.6784,-0.6785,-0.6785,-0.6757,-0.6756,-0.6755,0,0,0,0,0,0,0,0,0,0,0,0,0,-0.6852,-0.6851,-0.6805,-0.6804,-0.6804,-0.678,-0.678,-0.678,-0.6784,-0.6784,-0.6785,-0.6785,-0.6757,-0.6756,-0.6755,0,0,0,0,0,0,0,0,0,0,0,0,0,-0.6829,-0.685,-0.6805,-0.6803,-0.6803,-0.678,-0.678,-0.678,-0.6784,-0.6784,-0.6785,-0.6786,-0.6758,-0.6756,-0.6755,-0.6731,0,0,-0.6749,-0.6748,0,0,0,0,0,0,0,0,-0.6831,-0.6828,-0.6804,-0.6803,-0.6803,-0.6786,-0.6786,-0.6763,-0.6784,-0.6791,-0.6785,-0.6786,-0.6766,-0.6764,-0.6757,-0.6729,-0.6728,-0.6749,-0.6748,-0.6747,-0.6747,0,0,0,0,0,0,0,-0.6832,-0.6829,-0.6795,-0.6804,-0.6803,-0.6803,-0.68,-0.6782,-0.6775,-0.679,-0.6791,-0.6788,-0.6766,-0.6759,-0.6757,-0.6728,-0.6749,-0.6748,-0.6747,-0.6746,-0.6678,-0.6677,0,0,0,0,0,0,-0.6835,-0.683,-0.6796,-0.6794,-0.6819,-0.6802,-0.6799,-0.6791,-0.6775,-0.6774,-0.6787,-0.6788,-0.6762,-0.6759,-0.6756,-0.6726,-0.6747,-0.6746,-0.6745,-0.6678,-0.6677,-0.6677,0,0,0,0,0,0,-0.6836,-0.6832,-0.6797,-0.6812,-0.6808,-0.68,-0.6791,-0.679,-0.6783,-0.6773,-0.6771,-0.6782,-0.6762,-0.6758,-0.6737,-0.6725,-0.6745,-0.6743,-0.6679,-0.6678,-0.6677,-0.6667,0,0,0,0,0,0,-0.6837,-0.6832,-0.6824,-0.6812,-0.6807,-0.6779,-0.679,-0.6789,-0.6781,-0.6781,-0.6768,-0.6766,-0.6762,-0.6739,-0.6735,-0.6723,-0.6742,-0.668,-0.6679,-0.6677,-0.6668,-0.6665,-0.6663,0,0,0,0,0,-0.6839,-0.6821,-0.6823,-0.6819,-0.6797,-0.6778,-0.6775,-0.6773,-0.678,-0.6771,-0.6764,-0.6766,-0.6727,-0.6737,-0.6732,-0.672,-0.6681,-0.6679,-0.6677,-0.6669,-0.6666,-0.6663,0,0,0,0,0,0,-0.6831,-0.682,-0.6822,-0.68,-0.679,-0.6779,-0.6768,-0.677,-0.6757,-0.6758,-0.6754,-0.6751,-0.6729,-0.6722,-0.6733,-0.6695,-0.6705,-0.6702,-0.67,-0.6697,-0.6695,-0.6696,-0.6741,0,0,0,0,0,-0.6827,-0.6814,-0.6805,-0.6787,-0.6782,-0.6776,-0.6768,-0.6766,-0.6756,-0.6751,-0.6743,-0.6731,-0.6716,-0.6706,-0.6692,-0.6667,-0.6664,-0.6656,-0.6654,-0.6652,-0.6649,-0.6634,-0.663,-0.6671,-0.6671,-0.6671,0,0,-0.6818,-0.681,-0.6802,-0.6785,-0.6777,-0.6763,-0.6772,-0.6757,-0.6746,-0.6748,-0.6728,-0.6721,-0.6708,-0.6684,-0.6674,-0.6678,-0.6637,-0.665,-0.6648,-0.6646,-0.6632,-0.6628,-0.6625,-0.667,-0.667,-0.667,0,0,-0.6794,-0.6788,-0.6772,-0.6764,-0.6752,-0.6748,-0.6744,-0.6733,-0.6729,-0.6708,-0.671,-0.6696,-0.6671,-0.6661,-0.6652,-0.6625,-0.6626,-0.662,-0.6607,-0.6592,-0.6589,-0.6586,-0.6575,-0.6571,-0.6618,-0.6618,-0.6618,0,-0.6784,-0.6764,-0.6763,-0.6747,-0.6739,-0.6742,-0.6725,-0.6717,-0.67,-0.6694,-0.67,-0.6667,-0.6659,-0.6632,-0.6626,-0.6619,-0.6614,-0.6621,-0.659,-0.6587,-0.6584,-0.6573,-0.6569,-0.6617,-0.6617,-0.6617,-0.6617,0,-0.6752,-0.6738,-0.6726,-0.6711,-0.6701,-0.6685,-0.668,-0.667,-0.667,-0.6665,-0.6643,-0.6633,-0.6616,-0.661,-0.6609,-0.6583,-0.6586,-0.6591,-0.66,-0.658,-0.6569,-0.6566,-0.6616,-0.6616,-0.6616,-0.6617,0,0,-0.6723,-0.6707,-0.6703,-0.6696,-0.6683,-0.6671,-0.6654,-0.6639,-0.663,-0.6619,-0.6603,-0.6582,-0.6586,-0.6576,-0.6574,-0.6562,-0.6539,-0.6568,-0.6567,-0.6562,-0.6508,-0.6504,-0.65,-0.654,-0.6539,-0.6539,-0.6509,0,-0.6697,-0.6669,-0.6667,-0.664,-0.6626,-0.6629,-0.6614,-0.6603,-0.6598,-0.6585,-0.6579,-0.6563,-0.657,-0.6564,-0.6552,-0.6545,-0.6528,-0.6547,-0.6525,-0.6524,-0.6527,-0.6495,-0.649,-0.6463,-0.6505,-0.6505,-0.6504,0,-0.6663,-0.6652,-0.6624,-0.6613,-0.6607,-0.6593,-0.6579,-0.6566,-0.6554,-0.6551,-0.654,-0.654,-0.6521,-0.6532,-0.6506,-0.6518,-0.6509,-0.6504,-0.6503,-0.65,-0.6512,-0.649,-0.6454,-0.6449,-0.6498,-0.6499,-0.6499,0,-0.6643,-0.6621,-0.6601,-0.6595,-0.6581,-0.6572,-0.6565,-0.6554,-0.6545,-0.6531,-0.6525,-0.6509,-0.65,-0.6488,-0.6483,-0.6491,-0.6456,-0.6467,-0.6452,-0.6452,-0.6443,-0.6444,-0.6405,-0.6439,-0.6439,-0.6439,-0.6439,0,-0.6615,-0.6597,-0.6592,-0.658,-0.656,-0.6557,-0.6538,-0.6532,-0.6521,-0.6507,-0.6508,-0.6494,-0.6489,-0.6474,-0.647,-0.6448,-0.6444,-0.644,-0.6439,-0.6439,-0.6439,-0.6432,-0.6434,-0.6438,-0.6438,-0.6439,-0.6439,0,-0.6589,-0.6584,-0.6563,-0.6552,-0.6548,-0.6534,-0.6524,-0.6512,-0.6507,-0.6488,-0.6484,-0.6476,-0.6458,-0.6452,-0.643,-0.6428,-0.6401,-0.6403,-0.6406,-0.6405,-0.639,-0.6391,-0.6344,-0.6337,-0.6377,-0.6377,-0.6377,0,-0.657,-0.6557,-0.6544,-0.6535,-0.6529,-0.6514,-0.6505,-0.6501,-0.6491,-0.6476,-0.6465,-0.6448,-0.6434,-0.6405,-0.6396,-0.638,-0.6379,-0.6364,-0.6377,-0.6377,-0.6378,-0.6378,-0.6376,-0.6361,-0.6361,-0.6361,-0.636,0,-0.6537,-0.6536,-0.6522,-0.6508,-0.6497,-0.6485,-0.6474,-0.6466,-0.6461,-0.6449,-0.6432,-0.6421,-0.6399,-0.6381,-0.6364,-0.6356,-0.6357,-0.6357,-0.6352,-0.6352,-0.6354,-0.6351,-0.6398,-0.6357,-0.6358,-0.6358,-0.6358,-0.6358,-0.6513,-0.6501,-0.6491,-0.6476,-0.6467,-0.6456,-0.6444,-0.6437,-0.6423,-0.6405,-0.6404,-0.6385,-0.6372,-0.6349,-0.634,-0.6324,-0.6328,-0.6322,-0.632,-0.6318,-0.6316,-0.6357,-0.6321,-0.6321,-0.6321,-0.6321,-0.6321,0,-0.648,-0.6473,-0.6459,-0.6443,-0.6431,-0.6434,-0.6422,-0.6411,-0.6394,-0.6383,-0.6369,-0.6348,-0.6331,-0.6321,-0.6303,-0.6292,-0.6292,-0.6287,-0.6287,-0.6285,-0.6314,-0.632,-0.6288,-0.6288,-0.6288,-0.6288,-0.6288,-0.6288,-0.646,-0.644,-0.6437,-0.6412,-0.6405,-0.6387,-0.6379,-0.6369,-0.6359,-0.6336,-0.6322,-0.6316,-0.6305,-0.6286,-0.627,-0.6267,-0.626,-0.6255,-0.6253,-0.628,-0.6283,-0.6287,-0.6291,-0.6254,-0.6254,-0.6225,-0.6224,-0.6224]}]]